Stations météo

réclame
Mon MeteoGroup
Arezzo, Italie (16172): Température de l'air & dewpoint: 15.02.2018 16:00:00 - 21.02.2018 16:00:00 (CET)Arezzo, Italie (16172): Vitesse du vent: 15.02.2018 16:00:00 - 21.02.2018 16:00:00 (CET)Arezzo, Italie (16172): Direction du vent: 15.02.2018 16:00:00 - 21.02.2018 16:00:00 (CET)Arezzo, Italie (16172): reduced air pressure: 15.02.2018 16:00:00 - 21.02.2018 16:00:00 (CET)Arezzo, Italie (16172): visibility: 15.02.2018 16:00:00 - 21.02.2018 16:00:00 (CET)
Date & Time tt [°C] td [°C] ff [km/h] ff [knt] dd ppp [hPa] vv [km]
21.02.2018 16:00:00 5,2 -1,3 8 4 N 1005,8 12
21.02.2018 15:00:00 - - - - - - -
21.02.2018 14:00:00 - - - - - - -
21.02.2018 13:00:00 6,4 -1,5 16 9 NNE 1006,1 17
21.02.2018 12:00:00 - - - - - - -
21.02.2018 11:00:00 - - - - - - -
21.02.2018 10:00:00 5,2 -1,5 15 8 NNE 1006,2 15
21.02.2018 09:00:00 - - - - - - -
21.02.2018 08:00:00 - - - - - - -
21.02.2018 07:00:00 3,8 -2,0 18 10 NNE 1006,3 15
21.02.2018 06:00:00 - - - - - - -
21.02.2018 05:00:00 - - - - - - -
21.02.2018 04:00:00 - - - - - - -
21.02.2018 03:00:00 - - - - - - -
21.02.2018 02:00:00 - - - - - - -
21.02.2018 01:00:00 - - - - - - -
21.02.2018 00:00:00 - - - - - - -
20.02.2018 23:00:00 - - - - - - -
20.02.2018 22:00:00 - - - - - - -
20.02.2018 21:00:00 - - - - - - -
20.02.2018 20:00:00 - - - - - - -
20.02.2018 19:00:00 4,0 -2,2 5 3 NNE 1007,3 14
20.02.2018 18:00:00 - - - - - - -
20.02.2018 17:00:00 - - - - - - -
20.02.2018 16:00:00 6,0 -1,9 11 6 NE 1007,5 18
20.02.2018 15:00:00 - - - - - - -
20.02.2018 14:00:00 - - - - - - -
20.02.2018 13:00:00 7,8 -3,4 13 7 ENE 1008,4 18
20.02.2018 12:00:00 - - - - - - -
20.02.2018 11:00:00 - - - - - - -
20.02.2018 10:00:00 3,8 -4,6 5 3 NNE 1010,2 16
20.02.2018 09:00:00 - - - - - - -
20.02.2018 08:00:00 - - - - - - -
20.02.2018 07:00:00 3,0 -2,9 5 3 NNE 1010,6 12
20.02.2018 06:00:00 - - - - - - -
20.02.2018 05:00:00 - - - - - - -
20.02.2018 04:00:00 - - - - - - -
20.02.2018 03:00:00 - - - - - - -
20.02.2018 02:00:00 - - - - - - -
20.02.2018 01:00:00 - - - - - - -
20.02.2018 00:00:00 - - - - - - -
19.02.2018 23:00:00 - - - - - - -
19.02.2018 22:00:00 - - - - - - -
19.02.2018 21:00:00 - - - - - - -
19.02.2018 20:00:00 - - - - - - -
19.02.2018 19:00:00 4,2 -0,2 5 3 NNE 1014,5 16
19.02.2018 18:00:00 - - - - - - -
19.02.2018 17:00:00 - - - - - - -
19.02.2018 16:00:00 7,4 -0,3 13 7 NE 1014,4 20
19.02.2018 15:00:00 - - - - - - -
19.02.2018 14:00:00 - - - - - - -
19.02.2018 13:00:00 8,0 0,3 13 7 NE 1015,4 18
19.02.2018 12:00:00 - - - - - - -
19.02.2018 11:00:00 - - - - - - -
19.02.2018 10:00:00 5,0 -1,4 8 4 NNE 1016,1 16
19.02.2018 09:00:00 - - - - - - -
19.02.2018 08:00:00 - - - - - - -
19.02.2018 07:00:00 4,6 0,7 5 3 N 1015,6 12
19.02.2018 06:00:00 - - - - - - -
19.02.2018 05:00:00 - - - - - - -
19.02.2018 04:00:00 - - - - - - -
19.02.2018 03:00:00 - - - - - - -
19.02.2018 02:00:00 - - - - - - -
19.02.2018 01:00:00 - - - - - - -
19.02.2018 00:00:00 - - - - - - -
18.02.2018 23:00:00 - - - - - - -
18.02.2018 22:00:00 - - - - - - -
18.02.2018 21:00:00 - - - - - - -
18.02.2018 20:00:00 - - - - - - -
18.02.2018 19:00:00 5,0 2,7 9 5 N 1016,8 10
18.02.2018 18:00:00 - - - - - - -
18.02.2018 17:00:00 - - - - - - -
18.02.2018 16:00:00 6,4 2,7 9 5 ENE 1015,9 14
18.02.2018 15:00:00 - - - - - - -
18.02.2018 14:00:00 - - - - - - -
18.02.2018 13:00:00 8,0 6,1 5 3 SE 1015,7 7
18.02.2018 12:00:00 - - - - - - -
18.02.2018 11:00:00 - - - - - - -
18.02.2018 10:00:00 7,8 6,9 4 2 S 1015,5 7
18.02.2018 09:00:00 - - - - - - -
18.02.2018 08:00:00 - - - - - - -
18.02.2018 07:00:00 8,0 6,1 8 4 SE 1015,1 10
18.02.2018 06:00:00 - - - - - - -
18.02.2018 05:00:00 - - - - - - -
18.02.2018 04:00:00 - - - - - - -
18.02.2018 03:00:00 - - - - - - -
18.02.2018 02:00:00 - - - - - - -
18.02.2018 01:00:00 - - - - - - -
18.02.2018 00:00:00 - - - - - - -
17.02.2018 23:00:00 - - - - - - -
17.02.2018 22:00:00 - - - - - - -
17.02.2018 21:00:00 - - - - - - -
17.02.2018 20:00:00 - - - - - - -
17.02.2018 19:00:00 6,2 5,9 0 0 N 1020,5 3,0
17.02.2018 18:00:00 - - - - - - -
17.02.2018 17:00:00 - - - - - - -
17.02.2018 16:00:00 7,0 6,2 4 2 N 1021,5 2,0
17.02.2018 15:00:00 - - - - - - -
17.02.2018 14:00:00 - - - - - - -
17.02.2018 13:00:00 7,2 4,5 5 3 W 1023,0 6
17.02.2018 12:00:00 - - - - - - -
17.02.2018 11:00:00 - - - - - - -
17.02.2018 10:00:00 5,4 3,2 8 4 SSW 1024,3 4,0
17.02.2018 09:00:00 - - - - - - -
17.02.2018 08:00:00 - - - - - - -
17.02.2018 07:00:00 4,6 3,6 4 2 W 1025,0 7
17.02.2018 06:00:00 - - - - - - -
17.02.2018 05:00:00 - - - - - - -
17.02.2018 04:00:00 - - - - - - -
17.02.2018 03:00:00 - - - - - - -
17.02.2018 02:00:00 - - - - - - -
17.02.2018 01:00:00 - - - - - - -
17.02.2018 00:00:00 - - - - - - -
16.02.2018 23:00:00 - - - - - - -
16.02.2018 22:00:00 - - - - - - -
16.02.2018 21:00:00 - - - - - - -
16.02.2018 20:00:00 - - - - - - -
16.02.2018 19:00:00 5,2 1,1 0 0 N 1025,2 4,0
16.02.2018 18:00:00 - - - - - - -
16.02.2018 17:00:00 - - - - - - -
16.02.2018 16:00:00 7,0 0,2 4 2 SW 1024,5 6
16.02.2018 15:00:00 - - - - - - -
16.02.2018 14:00:00 - - - - - - -
16.02.2018 13:00:00 5,4 -1,3 0 0 N 1025,9 6
16.02.2018 12:00:00 - - - - - - -
16.02.2018 11:00:00 - - - - - - -
16.02.2018 10:00:00 1,2 -2,7 0 0 N 1026,1 6
16.02.2018 09:00:00 - - - - - - -
16.02.2018 08:00:00 - - - - - - -
16.02.2018 07:00:00 -3,2 -4,0 0 0 N 1026,1 15
16.02.2018 06:00:00 - - - - - - -
16.02.2018 05:00:00 - - - - - - -
16.02.2018 04:00:00 - - - - - - -
16.02.2018 03:00:00 - - - - - - -
16.02.2018 02:00:00 - - - - - - -
16.02.2018 01:00:00 - - - - - - -
16.02.2018 00:00:00 - - - - - - -
15.02.2018 23:00:00 - - - - - - -
15.02.2018 22:00:00 - - - - - - -
15.02.2018 21:00:00 - - - - - - -
15.02.2018 20:00:00 - - - - - - -
15.02.2018 19:00:00 1,8 -4,9 4 2 S 1023,4 17
15.02.2018 18:00:00 - - - - - - -
15.02.2018 17:00:00 - - - - - - -
15.02.2018 16:00:00 8,2 -8,8 5 3 WNW 1022,7 20

tt = Température de l'air
td = dewpoint
ff = Vitesse du vent
dd = Direction du vent
ppp = reduced air pressure
vv = visibility

stations d'obs. à proximité